Wind_Speed
13 13 12 13 13 13 13 12 12 12 11 10 9 8 8 7 7 7 7 6 6 6 6 6 6 6 6 5 5 5 5 5 6 6 6 7 7 7 7 8 8 9
13 12 12 12 13 13 13 12 13 12 11 10 9 8 8 8 7 7 7 7 7 7 7 7 6 6 6 6 6 6 5 5 6 6 7 7 7 7 8 8 9 9
14 13 12 12 12 12 12 12 12 12 11 10 10 8 8 8 7 7 8 8 7 7 7 7 7 7 7 6 6 5 5 5 5 6 7 7 8 8 8 9 9 9
15 14 13 13 13 12 13 12 11 11 11 10 9 9 8 8 8 8 8 9 8 8 8 8 8 7 7 7 6 6 6 6 6 6 7 7 8 8 9 9 10 10
16 15 15 14 14 13 13 12 11 11 10 10 10 9 8 8 8 8 8 9 8 9 9 9 9 8 8 8 7 7 7 7 6 6 7 7 7 8 9 10 10 10
17 17 17 16 16 15 14 13 12 11 10 10 10 9 8 8 8 8 8 9 9 9 9 9 9 9 8 9 8 7 8 7 7 7 7 7 6 6 7 8 9 9
18 19 18 18 17 16 15 14 13 12 11 11 10 9 9 9 9 9 9 8 8 9 9 8 8 8 8 8 8 8 8 7 7 6 6 6 6 7 6 6 7 8
18 19 20 19 18 17 16 15 14 13 12 12 11 10 10 10 9 9 9 9 9 8 8 8 7 7 7 7 7 7 7 7 7 6 5 5 6 6 6 6 7 7
18 19 20 20 20 18 18 17 15 14 13 13 12 11 12 11 11 10 10 9 9 9 8 8 8 7 7 7 7 7 7 7 7 6 6 5 6 6 6 6 7 6
18 18 20 20 21 20 19 18 17 16 15 14 13 13 13 12 12 11 11 10 10 9 9 9 9 8 8 8 8 7 8 8 7 7 7 6 6 6 6 6 6 6
18 19 19 19 20 20 20 20 19 18 17 15 15 15 13 13 13 12 11 12 11 10 11 10 10 10 9 8 8 8 8 8 7 8 8 8 8 7 7 7 6 6
19 18 18 18 19 19 20 20 20 19 18 17 16 16 15 13 14 13 12 13 12 12 12 12 11 11 10 9 9 9 8 8 7 8 8 8 8 8 7 7 6 6
19 19 18 18 18 18 19 19 19 20 20 18 17 16 16 15 14 14 14 14 13 13 13 14 14 13 12 11 11 10 10 9 9 9 8 8 8 8 7 7 7 7
19 19 19 19 18 18 19 19 19 19 20 20 18 17 17 17 16 15 15 15 15 14 15 16 16 15 14 13 12 11 11 11 11 11 9 9 8 8 8 8 8 8
22 22 21 21 20 19 19 19 19 20 20 20 19 18 18 18 18 17 17 17 16 16 16 17 18 18 17 15 13 13 12 12 12 11 10 9 9 9 9 9 8 9
26 26 25 23 22 22 21 21 21 21 21 21 20 18 18 18 18 19 19 18 18 17 17 18 20 20 18 16 15 15 14 13 12 11 11 11 10 10 10 10 10 10
26 25 24 23 23 23 22 22 22 21 22 22 21 20 20 19 18 18 18 18 18 18 19 19 20 19 17 16 17 16 15 14 14 13 12 12 11 11 11 11 11 11
27 24 23 23 23 24 24 24 23 22 23 23 23 23 23 22 20 19 18 18 17 18 19 19 19 19 17 17 17 17 15 15 16 15 14 13 12 12 12 12 12 12
27 24 24 26 26 26 26 25 25 24 24 25 25 25 25 24 23 22 21 21 19 19 19 18 17 18 18 17 17 17 16 16 17 18 16 15 14 14 14 14 14 13
26 25 26 28 28 27 26 26 26 27 27 28 28 28 27 27 27 26 25 24 23 22 22 21 19 18 18 18 17 18 18 18 19 20 19 17 16 16 17 16 16 14
27 26 25 27 29 29 29 28 29 30 31 31 31 31 31 31 31 30 29 28 27 26 26 26 23 21 21 20 19 19 19 18 19 21 20 18 18 18 18 17 17 16
30 29 28 28 29 30 30 30 31 31 32 32 33 33 34 35 34 34 33 32 31 29 29 29 27 26 24 22 21 22 21 20 20 21 21 21 20 20 19 19 18 18
33 33 32 30 29 29 29 29 30 31 31 32 33 34 36 37 37 37 37 37 36 35 34 33 32 31 29 26 24 25 24 22 21 21 22 23 23 23 22 22 21 21
34 33 31 29 28 28 28 28 29 30 30 31 31 32 33 35 36 36 37 38 39 39 39 39 37 35 33 31 29 28 27 26 24 24 24 24 23 23 23 23 23 22
31 30 28 27 27 27 27 28 27 27 27 27 28 29 30 30 30 31 32 33 35 37 38 38 37 35 34 34 33 32 31 29 27 26 25 24 23 22 22 22 22 21
27 26 25 24 24 25 26 26 25 24 24 24 24 25 26 25 25 24 24 25 28 31 32 34 34 33 34 35 36 36 36 33 29 28 27 27 26 25 24 22 21 21
Wind_Direction
202 203 203 200 199 200 202 202 202 205 205 206 207 208 214 217 211 213 218 216 214 212 209 209 210 212 217 218 217 220 223 223 222 221 223 223 222 222 218 225 235 232
206 204 204 205 205 204 206 206 205 206 208 211 214 213 218 225 221 220 227 225 223 223 220 217 213 211 216 221 217 218 224 227 228 229 230 229 230 233 231 233 239 241
209 206 205 206 209 209 210 212 211 210 211 214 218 215 216 223 224 225 232 233 231 232 232 228 222 216 214 218 219 222 228 230 229 232 232 232 235 236 237 238 240 242
211 209 208 208 210 211 213 214 214 215 216 217 221 219 216 221 224 226 231 236 236 236 239 237 230 226 222 222 225 224 227 228 226 230 233 235 240 241 241 243 245 246
212 210 210 212 212 215 217 216 216 218 217 218 225 226 222 225 227 226 229 235 236 236 239 238 233 232 230 230 231 225 223 227 225 230 237 238 240 245 247 247 249 252
214 213 212 215 216 218 222 222 221 222 219 218 225 228 226 226 227 228 228 230 232 235 238 238 236 234 232 233 233 228 225 226 228 233 240 245 245 244 248 251 251 252
217 215 214 217 219 221 224 225 225 226 228 226 225 227 229 228 227 232 234 231 230 233 236 237 236 234 232 231 231 231 229 226 230 236 239 243 247 246 247 250 251 251
219 217 216 218 220 223 225 226 226 227 230 231 228 229 232 231 231 235 238 238 235 235 236 236 236 234 232 231 230 232 234 230 230 237 239 237 241 244 244 242 240 244
220 219 219 219 220 223 226 227 228 228 229 231 230 231 232 232 233 235 238 240 240 239 238 235 234 231 227 229 229 228 232 233 232 233 234 232 234 236 236 236 234 237
221 221 221 222 222 223 227 229 230 230 230 231 232 232 232 232 234 236 240 243 243 243 241 237 236 234 227 226 230 228 227 228 227 227 230 231 232 230 229 233 233 232
221 222 222 224 225 226 227 229 232 232 231 233 235 236 236 237 239 240 241 242 243 244 242 238 237 239 237 231 230 230 228 225 221 222 228 232 235 231 226 227 227 227
221 223 223 224 226 228 228 230 234 236 235 232 233 238 239 240 243 243 241 242 244 244 243 243 241 242 245 241 237 234 230 227 223 223 228 233 237 239 236 236 234 230
222 223 225 225 225 227 229 231 234 237 240 237 233 236 239 240 241 242 241 241 243 243 244 246 245 243 243 242 240 237 234 233 227 224 229 233 238 245 248 250 249 245
223 224 224 225 226 226 227 231 232 234 239 240 235 233 235 237 238 240 241 242 244 245 245 246 244 241 239 241 243 241 239 237 231 225 224 226 231 238 245 253 258 259
220 223 225 225 225 225 224 227 230 232 234 237 237 234 232 233 235 237 239 241 242 243 242 241 238 234 232 233 237 242 242 243 242 236 228 225 225 228 235 243 251 256
214 216 220 223 224 225 227 229 232 235 238 240 242 241 237 236 236 239 241 243 243 240 238 239 239 236 232 227 228 235 240 242 244 243 238 234 230 230 233 240 246 252
222 219 222 225 226 228 233 236 238 241 244 246 248 247 246 245 244 245 247 247 247 245 243 245 248 251 247 235 231 235 238 239 240 240 239 237 233 232 235 239 245 251
234 232 234 236 236 236 239 240 241 244 247 249 251 251 252 252 250 250 252 252 250 249 246 245 248 253 252 244 239 241 241 240 241 240 240 239 236 235 236 239 241 242
232 237 242 245 243 241 243 244 245 247 248 250 252 254 255 255 252 251 252 252 251 250 249 249 249 250 250 247 247 249 248 245 245 244 242 239 238 240 242 243 245 245
235 242 246 248 247 245 247 250 252 252 252 252 253 254 256 257 256 255 252 250 251 251 251 253 252 246 246 248 249 251 253 252 252 250 248 244 242 243 246 249 252 254
248 248 246 248 249 249 250 252 253 253 252 251 252 253 255 256 257 258 256 253 251 249 249 252 252 248 247 248 248 249 252 252 251 251 254 256 252 249 251 255 257 259
251 252 254 255 253 252 253 253 253 253 252 252 252 252 253 254 254 255 257 256 255 252 252 254 255 252 251 251 250 250 249 247 247 250 256 260 258 256 257 258 259 260
252 257 259 257 253 252 254 254 254 255 255 254 254 254 254 254 253 252 253 254 256 256 256 257 256 256 255 253 252 251 249 247 247 252 258 260 258 257 256 256 256 257
254 256 254 252 251 252 253 254 255 255 254 254 254 254 253 253 252 251 250 251 253 255 256 257 256 255 255 253 252 252 251 250 249 252 257 259 258 257 257 257 258 258
250 250 248 248 250 250 250 252 253 253 253 252 251 250 250 250 250 251 251 251 252 253 255 255 254 252 251 250 250 251 252 251 249 250 252 252 251 255 260 261 260 260
249 251 250 249 249 249 251 252 253 254 255 253 251 250 249 248 248 251 252 252 251 252 252 252 252 251 249 249 248 247 248 247 246 247 249 249 247 248 255 260 261 260
Height
3230 3231 3233 3234 3235 3236 3237 3238 3239 3239 3240 3241 3242 3243 3244 3245 3245 3246 3247 3247 3248 3249 3249 3250 3250 3251 3252 3253 3253 3254 3255 3255 3256 3256 3257 3257 3258 3259 3259 3259 3260 3260
3229 3231 3232 3233 3234 3235 3236 3237 3238 3239 3240 3241 3242 3243 3244 3244 3245 3246 3246 3247 3248 3248 3249 3249 3250 3250 3251 3252 3253 3253 3254 3254 3255 3256 3256 3257 3257 3258 3258 3259 3259 3260
3229 3230 3231 3232 3233 3234 3235 3236 3238 3238 3239 3240 3241 3242 3243 3244 3245 3245 3246 3246 3247 3248 3248 3249 3249 3250 3250 3251 3252 3252 3253 3254 3254 3255 3255 3256 3256 3257 3257 3258 3258 3259
3228 3229 3230 3232 3233 3234 3235 3236 3237 3238 3239 3240 3240 3241 3242 3243 3244 3245 3245 3246 3247 3247 3247 3248 3248 3249 3250 3250 3251 3252 3252 3253 3254 3254 3255 3255 3255 3256 3256 3256 3257 3258
3226 3228 3229 3230 3231 3232 3234 3235 3236 3237 3238 3239 3239 3240 3241 3242 3243 3244 3245 3245 3246 3246 3247 3247 3248 3248 3249 3249 3250 3251 3251 3252 3253 3253 3254 3254 3254 3255 3255 3255 3256 3256
3225 3226 3228 3229 3230 3231 3232 3234 3235 3236 3237 3238 3239 3239 3240 3241 3242 3243 3244 3244 3245 3245 3246 3247 3248 3248 3248 3249 3249 3250 3250 3251 3252 3252 3253 3253 3253 3254 3254 3254 3255 3255
3223 3225 3226 3227 3229 3230 3231 3232 3234 3235 3236 3237 3238 3238 3239 3240 3241 3242 3242 3243 3244 3244 3245 3246 3247 3247 3247 3248 3248 3249 3249 3250 3250 3251 3251 3252 3252 3253 3253 3253 3254 3254
3222 3223 3225 3226 3227 3229 3230 3231 3232 3233 3234 3235 3236 3237 3238 3239 3240 3241 3241 3242 3243 3243 3244 3245 3246 3246 3247 3247 3248 3248 3248 3249 3249 3250 3250 3251 3251 3251 3252 3252 3253 3253
3220 3222 3223 3224 3226 3227 3229 3230 3231 3232 3233 3234 3235 3236 3237 3238 3238 3239 3240 3241 3242 3243 3243 3244 3245 3245 3246 3246 3247 3247 3248 3248 3249 3249 3249 3250 3250 3250 3251 3251 3251 3252
3219 3220 3222 3223 3224 3226 3227 3228 3229 3231 3232 3232 3234 3235 3236 3236 3237 3238 3239 3240 3241 3241 3242 3243 3243 3244 3244 3245 3246 3246 3246 3247 3247 3248 3248 3249 3249 3249 3250 3250 3250 3251
3217 3219 3220 3222 3223 3224 3226 3227 3228 3229 3230 3231 3232 3233 3234 3235 3236 3237 3238 3238 3239 3240 3241 3241 3241 3242 3243 3243 3244 3245 3245 3245 3246 3246 3247 3248 3248 3249 3249 3249 3250 3250
3216 3218 3219 3221 3222 3223 3224 3225 3226 3227 3228 3230 3231 3231 3232 3233 3234 3235 3236 3237 3237 3238 3239 3240 3240 3241 3241 3242 3243 3243 3243 3244 3244 3245 3246 3246 3247 3248 3248 3248 3249 3249
3215 3217 3218 3220 3221 3222 3223 3224 3225 3225 3226 3227 3229 3229 3230 3231 3232 3233 3234 3235 3235 3236 3237 3238 3239 3239 3240 3240 3241 3242 3242 3242 3243 3243 3244 3245 3246 3246 3247 3247 3248 3248
3214 3216 3217 3218 3219 3221 3222 3223 3223 3224 3224 3225 3226 3227 3228 3229 3230 3231 3232 3233 3233 3234 3235 3236 3237 3238 3238 3239 3239 3240 3240 3241 3241 3241 3242 3243 3243 3244 3245 3246 3246 3247
3211 3213 3214 3215 3217 3218 3219 3221 3221 3222 3222 3222 3224 3225 3226 3227 3228 3229 3229 3230 3231 3232 3233 3233 3234 3235 3236 3237 3238 3238 3239 3239 3239 3240 3240 3241 3241 3242 3243 3244 3244 3245
3206 3208 3211 3212 3214 3215 3217 3218 3219 3220 3220 3221 3222 3223 3224 3225 3226 3226 3227 3228 3229 3230 3230 3231 3231 3232 3234 3235 3235 3236 3237 3238 3238 3238 3239 3239 3239 3240 3240 3241 3242 3242
3206 3207 3210 3211 3212 3213 3214 3216 3217 3218 3219 3219 3220 3221 3222 3223 3224 3224 3225 3226 3227 3228 3228 3229 3230 3231 3233 3234 3233 3234 3235 3235 3236 3236 3237 3237 3238 3238 3238 3239 3239 3240
3207 3209 3211 3211 3211 3211 3211 3213 3214 3216 3217 3217 3218 3218 3219 3220 3221 3222 3222 3223 3224 3225 3226 3227 3229 3230 3231 3232 3232 3232 3233 3233 3234 3234 3235 3235 3236 3236 3236 3236 3237 3237
3206 3208 3210 3210 3210 3210 3209 3210 3212 3213 3214 3215 3215 3216 3216 3217 3218 3219 3220 3220 3221 3221 3222 3224 3226 3228 3229 3230 3230 3230 3230 3231 3232 3232 3232 3233 3233 3233 3233 3234 3234 3235
3203 3205 3207 3207 3207 3207 3207 3207 3209 3210 3211 3212 3212 3213 3213 3213 3214 3215 3216 3217 3217 3218 3220 3221 3223 3225 3226 3227 3227 3227 3228 3228 3229 3229 3230 3230 3231 3231 3231 3231 3232 3233
3199 3201 3203 3203 3202 3203 3203 3203 3204 3206 3207 3208 3209 3210 3210 3210 3210 3211 3212 3213 3215 3216 3217 3218 3220 3221 3223 3223 3224 3224 3225 3225 3226 3227 3227 3228 3228 3228 3229 3229 3230 3231
3194 3196 3197 3198 3198 3199 3199 3199 3200 3201 3201 3203 3205 3206 3206 3207 3207 3207 3208 3209 3210 3211 3212 3214 3215 3217 3218 3219 3220 3221 3221 3222 3223 3224 3224 3225 3225 3226 3226 3227 3228 3228
3189 3191 3192 3193 3194 3195 3195 3195 3196 3196 3197 3198 3199 3200 3201 3202 3202 3204 3204 3205 3206 3206 3207 3209 3210 3212 3213 3215 3216 3217 3218 3218 3219 3220 3221 3222 3222 3223 3223 3223 3224 3225
3183 3185 3187 3189 3190 3190 3191 3191 3192 3192 3193 3193 3194 3195 3196 3196 3197 3198 3200 3201 3202 3202 3203 3204 3206 3207 3209 3210 3211 3213 3214 3215 3215 3216 3218 3219 3219 3219 3220 3220 3220 3221
3178 3179 3181 3183 3185 3186 3186 3187 3188 3188 3189 3189 3190 3190 3191 3192 3193 3194 3195 3196 3197 3197 3199 3200 3201 3203 3204 3206 3207 3208 3209 3210 3212 3212 3213 3214 3215 3216 3216 3217 3217 3218
3175 3175 3177 3179 3181 3182 3183 3184 3185 3186 3186 3186 3186 3187 3187 3188 3189 3190 3191 3192 3192 3193 3195 3196 3196 3197 3198 3200 3201 3202 3204 3206 3207 3208 3209 3210 3211 3212 3213 3214 3214 3215